User: anonymous   Login
Location: Caltech
(34.1382°N, 118.1253°W)
Time: 14:04:38
(UTC-08:00)
Language:

Oscar 16 - Orbit

View from above orbital plane
View from above orbital plane
View from above satellite
View from above satellite

Ground track
Ground track

The orbit data is extracted from the following two-line orbital elements,

1 20439U 90005D   17328.46470425  .00000029  00000-0  26841-4 0  9991
2 20439  98.6252 266.8325 0011772  53.3258  61.8542 14.32702232454351
Epoch (UTC): 24 November 2017 11:09:10
Eccentricity: 0.0011772
inclination: 98.6252°
perigee height: 774 km
apogee height: 791 km
right ascension of ascending node: 266.8325°
argument of perigee: 53.3258°
revolutions per day: 14.32702232
mean anomaly at epoch: 61.8542°
orbit number at epoch: 45435

The dashed part of the orbit path shows where the satellite is in the earth's shadow,  

DLR